Simultaneous Nadir Overpasses (SNOs) Predictions

Prediction of SNOs between NOAA-19 and NPP Satellite Orbit:

Table of predicted SNOs for the next 14.0 days since TLE Epoch: 3/14/2014
Index Date (NOAA-19) Time (NOAA-19) Lat,Lon (NOAA-19) SZA (NOAA-19 ) Date (NPP) Time (NPP) Lat,Lon (NPP) SZA (NPP ) Distance(km) Time Diff (sec)
1 03/18/2014 08:14:50 80.99, 2.64 85.83 03/18/2014 08:15:56 80.99, 2.49 85.82 2.69 66
2 03/18/2014 09:05:57 -80.99, 169.89 94.19 03/18/2014 09:06:41 -80.99, 169.81 94.20 1.44 44
3 03/18/2014 09:56:54 80.99, -22.93 85.81 03/18/2014 09:57:26 80.99, -22.85 85.78 1.31 32
4 03/18/2014 10:48:00 -80.98, 144.70 94.27 03/18/2014 10:48:10 -80.97, 144.84 94.29 2.52 10
5 03/18/2014 11:38:56 80.97, -47.75 85.68 03/18/2014 11:38:55 80.97, -47.82 85.69 1.30 1
6 03/18/2014 12:30:03 -80.97, 119.50 94.34 03/18/2014 12:29:40 -80.97, 119.50 94.33 0.26 23
7 03/18/2014 13:20:59 80.96, -72.95 85.61 03/18/2014 13:20:24 80.96, -72.80 85.61 2.70 35
8 03/18/2014 14:12:05 -80.95, 94.68 94.47 03/18/2014 14:11:09 -80.96, 94.53 94.42 2.70 56




NCC Satellite Simultaneous Nadir Overpasses (SNOs) Prediction Service
